カタログに戻る

COSMOS 1275 DEB

運用中PO
NORAD 12703·DEBRIS·🇷🇺 Russia

打ち上げ Jun 4, 1981 から Plesetsk Cosmodrome

Loading…

次のパス (今後24時間)

TLE

最新Source: Space-Track

元期: Sep 14, 2026, 19:30 UTC

1 12703U 81053AX  26257.81285415  .00000713  00000-0  38176-3 0  9995
2 12703  82.9666 126.5663 0015798  72.3541 287.9359 14.11786740299757

AllMySatでCOSMOS 1275 DEBをリアルタイム追跡

Download on the App Store